This is the latest recevied weather packets stored in our database for station/object KC9Q. If no packets are shown the sender has not sent any weather packets the latest 10 day(s).
| Time | Temp. | Humidity | Pressure | Rain* | Wind** | Luminosity | Snow |
|---|---|---|---|---|---|---|---|
| 1777164495 | 23.89° C | 54% | 1009 hPa | 0 mm | - | 1 W/m² | - |
| 1777164190 | 23.89° C | 56% | 1008.8 hPa | 0 mm | - | 2 W/m² | - |
| 1777163885 | 23.89° C | 55% | 1008.8 hPa | 0 mm | - | 3 W/m² | - |
| 1777163585 | 24.44° C | 53% | 1008.9 hPa | 0 mm | - | 5 W/m² | - |
| 1777163281 | 24.44° C | 53% | 1008.9 hPa | 0 mm | - | 7 W/m² | - |
| 1777162977 | 25° C | 51% | 1008.6 hPa | 0 mm | - | 9 W/m² | - |
| 1777162671 | 25° C | 51% | 1008.7 hPa | 0 mm | - | 11 W/m² | - |
| 1777162366 | 25° C | 50% | 1008.8 hPa | 0 mm | - | 14 W/m² | - |
| 1777162066 | 25° C | 49% | 1008.8 hPa | 0 mm | - | 17 W/m² | - |
| 1777161761 | 25° C | 49% | 1008.7 hPa | 0 mm | - | 21 W/m² | - |
| 1777161459 | 25.56° C | 49% | 1008.6 hPa | 0 mm | - | 25 W/m² | - |
| 1777161154 | 25.56° C | 49% | 1008.6 hPa | 0 mm | - | 29 W/m² | - |
| 1777160851 | 25.56° C | 47% | 1008.4 hPa | 0 mm | - | 31 W/m² | - |
| 1777160546 | 25.56° C | 48% | 1008.4 hPa | 0 mm | - | 35 W/m² | - |
| 1777160243 | 25.56° C | 48% | 1008.5 hPa | 0 mm | - | 39 W/m² | - |
| 1777159939 | 26.11° C | 47% | 1008.5 hPa | 0 mm | - | 42 W/m² | - |
| 1777159635 | 26.11° C | 47% | 1008.3 hPa | 0 mm | - | 42 W/m² | - |
| 1777159331 | 26.11° C | 47% | 1008.5 hPa | 0 mm | - | 44 W/m² | - |
| 1777159027 | 26.11° C | 47% | 1008.6 hPa | 0 mm | - | 47 W/m² | - |
| 1777158722 | 26.11° C | 48% | 1008.6 hPa | 0 mm | - | 56 W/m² | - |
| 1777158418 | 26.11° C | 48% | 1008.5 hPa | 0 mm | - | 71 W/m² | - |
| 1777158113 | 26.11° C | 49% | 1008.6 hPa | 0 mm | - | 84 W/m² | - |
| 1777157809 | 26.11° C | 49% | 1008.6 hPa | 0 mm | - | 82 W/m² | - |
| 1777157505 | 26.11° C | 49% | 1008.6 hPa | 0 mm | - | 74 W/m² | - |
| 1777157202 | 26.11° C | 48% | 1008.4 hPa | 0 mm | - | 82 W/m² | - |
* Rain latest hour (hover to see other rain measurements)
** Current wind speed in m/s (hover to see current wind gust speed)